STARLINK-4383 (53473 NORAD) Tracking and Keplerian Element Data

This shows tracking and keplerian element data for the satellite.

Feedback or suggestion? Click here.




ElementValue
Catalog53473
NameSTARLINK-4383
Epoch Orbit1546
Epoch Day324.90458379
Epoch Year2022
RAAN83.945
Inclination97.656
Eccentricity2.87E-05
Argument of Perigee257.577
Mean Anonmoly102.5422
Mean Motion15.01251903
Decay Rate-6.9E-07
L11 53473U 22099J 22324.90458379 -.00000069 00000+0 -75356-6 0 9990
L22 53473 97.6560 83.9450 0000287 257.5770 102.5422 15.01251903 15465



Live tracking and technical data element details for STARLINK-4383 (NORAD 53473). STARLINK-4383 can be tracked NOW for your location showing map with azimuth and elevation plus other details from your city location.







IsCatalogInMostPopularTable: catalog: 53473, numindb: 6
Update: records affected: 1



GetName: 53473 STARLINK-4383

Hit Count: updated at: Thu, 08 Dec 2022 20:51:12 GMT